Wind_Speed
22 23 23 24 25 25 26 26 27 27 27 27 27 27 26 27 27 28 29 28 28 28 26 24 20 18 18 19 20 19 20 19 16 8 9 19 25 22 21 21 18 15 15 15 13 7 4 3 1 3 3 0 2 1 1 3 1 2 3 2 1 3 4 4 7 6 8 10 11 12 12 15 12 7 6 8 9 10 7 4 6 5 6 10 14 21 25 25
22 23 23 24 25 25 26 27 27 28 28 28 28 27 27 27 27 28 28 29 29 28 27 25 19 17 18 19 18 18 20 19 14 11 19 25 25 23 24 22 20 19 16 13 12 10 4 1 2 4 3 1 1 1 1 1 1 3 3 3 3 5 5 5 8 8 10 13 13 13 12 14 14 12 9 9 10 9 8 7 7 8 9 11 17 23 24 25
23 23 24 24 25 26 27 27 28 28 28 29 29 28 28 27 28 27 28 29 29 28 28 25 18 16 17 18 17 17 18 13 7 11 18 14 11 17 20 20 21 21 19 12 10 11 8 4 4 5 3 0 2 2 1 1 2 2 3 3 6 7 5 4 10 11 12 15 14 12 11 11 13 12 9 11 12 9 9 9 9 9 10 13 15 20 24 24
24 24 25 25 26 27 27 28 28 28 29 29 30 29 29 28 28 27 28 28 29 29 27 24 18 15 16 16 15 15 14 6 5 8 7 4 1 7 11 19 22 22 19 10 6 7 7 3 4 4 3 1 2 1 2 3 2 1 3 5 7 6 5 6 10 11 12 15 14 12 11 11 12 10 10 14 12 6 8 11 15 16 15 15 14 18 22 21
25 25 26 26 27 27 28 28 28 28 29 30 30 30 30 29 28 28 28 28 28 28 27 23 17 14 15 15 13 13 9 3 5 5 4 6 5 11 10 18 23 22 18 10 5 6 5 3 5 3 2 0 2 1 3 5 4 2 5 8 8 8 7 8 10 12 13 13 12 14 14 12 11 9 13 18 12 8 10 11 15 20 19 18 17 18 18 18
25 26 27 27 28 28 29 29 29 29 29 30 30 31 31 30 30 29 28 28 28 27 26 23 17 14 13 13 10 8 3 1 8 9 9 11 12 16 12 19 23 22 18 11 6 5 5 4 4 3 2 1 3 3 5 4 4 2 6 6 9 12 10 8 10 13 13 13 13 13 12 12 11 8 13 15 10 9 12 12 14 17 20 21 20 18 16 16
26 27 28 29 29 30 30 30 30 30 30 30 31 32 31 31 31 30 29 28 27 27 26 22 16 12 12 10 7 3 1 6 15 16 17 17 15 14 11 21 24 22 18 12 7 5 5 5 4 4 3 1 3 4 5 4 3 4 6 4 8 13 11 9 12 13 12 12 12 11 12 13 14 11 10 6 3 9 12 12 13 14 18 20 17 16 15 16
26 27 28 29 30 31 31 31 31 31 31 31 31 32 32 32 31 31 30 29 28 27 25 21 14 10 10 7 3 3 2 9 16 17 16 15 12 8 15 24 24 22 17 13 9 7 5 4 4 4 3 2 2 3 4 5 2 5 6 3 4 7 9 10 12 13 11 9 10 12 12 11 12 11 6 4 6 11 13 12 13 14 16 16 15 15 14 15
26 27 29 30 31 32 32 32 32 32 32 32 32 33 33 33 32 31 31 30 29 26 23 18 11 7 7 3 3 3 6 6 11 14 10 11 9 6 19 24 24 20 14 11 11 10 5 3 4 4 3 3 2 3 1 4 3 4 3 4 6 8 10 12 13 14 12 9 12 14 10 8 10 10 5 3 9 12 13 14 13 14 15 14 13 14 13 13
26 28 30 31 32 33 33 33 33 33 34 34 34 33 33 33 33 32 32 31 30 26 21 14 9 4 2 1 3 2 8 4 8 13 14 11 5 10 20 22 24 21 11 8 10 9 5 5 4 4 3 2 2 3 2 4 3 4 3 6 11 12 11 13 14 13 11 9 13 15 10 9 9 7 4 4 10 14 14 14 13 14 14 14 12 12 12 13
27 28 30 32 32 33 33 34 34 34 35 35 35 34 34 34 34 33 32 32 29 23 16 11 7 2 1 1 2 4 8 5 4 14 18 14 5 13 20 19 22 21 11 7 7 9 7 5 2 1 2 1 1 5 6 1 4 2 9 9 10 12 9 13 14 12 11 6 11 16 11 7 3 2 8 11 12 15 16 14 14 14 12 12 13 11 11 12
28 29 31 32 33 33 34 34 35 35 36 36 36 35 35 35 34 34 33 30 26 18 11 8 4 3 1 1 6 12 11 9 11 18 18 13 7 11 16 16 20 21 15 8 5 11 11 7 1 1 2 1 2 4 5 2 5 2 10 11 8 10 9 11 12 12 11 7 11 16 10 2 0 4 12 14 14 14 16 15 14 13 11 11 12 10 9 12
28 30 32 33 33 33 34 35 35 36 37 37 37 36 35 35 34 33 31 26 20 13 7 5 3 4 1 2 10 17 17 15 16 17 14 11 9 10 11 12 16 18 16 10 7 10 12 11 6 3 3 1 1 3 4 4 3 2 3 8 8 7 6 8 9 12 11 11 14 12 5 4 2 7 14 14 15 15 14 14 13 11 10 10 10 10 9 12
30 31 33 34 34 34 35 35 36 37 37 38 37 36 36 35 33 30 26 20 14 7 4 4 4 3 2 7 15 16 14 13 15 14 10 9 9 9 11 12 13 13 13 12 8 7 9 11 6 3 2 2 2 4 5 5 5 4 1 4 7 6 6 7 5 12 11 10 9 8 3 6 4 10 15 14 16 17 14 13 13 11 10 10 10 10 10 11
31 32 33 34 34 35 36 36 37 37 37 38 37 37 35 32 28 23 18 12 6 1 3 4 5 3 1 9 14 10 8 8 11 12 8 10 10 8 11 13 13 12 11 11 9 6 6 6 3 2 2 2 1 3 4 5 4 5 2 2 4 5 7 6 6 10 14 10 6 6 4 4 6 12 14 15 15 16 15 14 13 12 12 11 10 10 10 10
31 33 33 34 35 35 36 37 37 37 37 38 38 36 31 26 20 14 9 5 3 3 5 3 3 2 0 6 8 6 6 6 7 8 8 13 13 10 10 8 8 10 10 9 9 8 5 3 2 3 1 1 2 2 3 5 3 2 3 5 5 5 7 5 6 7 12 14 7 2 6 4 6 12 14 15 16 15 14 14 14 13 13 12 10 10 10 9
32 33 33 34 34 36 37 37 38 38 37 38 38 34 25 16 10 7 4 7 5 6 6 3 1 1 4 7 6 6 5 4 4 5 6 13 17 16 8 3 3 7 8 6 6 5 3 2 2 1 0 0 3 4 3 3 2 2 1 4 4 8 10 6 6 8 8 13 8 4 8 6 7 14 16 16 17 16 14 14 15 13 12 11 10 10 10 10
32 34 34 34 35 36 36 37 38 38 38 37 33 28 17 7 6 5 7 9 5 4 4 2 2 1 5 5 4 5 7 9 12 14 13 12 18 19 11 4 3 7 5 3 3 3 2 1 1 1 1 0 3 5 3 4 4 3 5 5 3 8 12 10 10 9 10 10 7 7 7 7 10 14 15 16 17 16 15 15 14 14 14 12 11 11 11 11
34 34 34 34 35 36 36 37 37 38 39 34 28 19 9 5 4 2 4 5 4 1 1 1 2 1 7 10 11 14 15 17 19 17 11 9 13 16 11 4 4 8 6 2 2 4 4 0 2 3 3 3 4 6 8 8 7 7 6 5 7 9 10 12 11 11 14 9 5 10 9 9 13 15 15 16 16 15 14 13 12 13 13 12 12 11 12 12
35 35 34 35 36 36 36 36 35 38 34 27 27 16 4 5 5 2 2 2 2 5 7 7 6 6 11 14 15 16 19 16 11 9 9 7 7 9 6 3 3 4 5 5 4 3 5 4 3 5 6 7 8 9 9 7 6 6 2 3 6 9 10 11 9 11 13 8 5 9 10 12 15 17 17 16 15 14 13 13 12 13 12 12 13 12 13 13
36 35 34 36 37 36 37 35 36 37 24 19 23 11 1 4 3 4 8 8 9 9 11 14 12 13 15 15 17 11 10 9 6 10 18 12 6 8 3 4 4 3 4 6 4 1 4 6 8 9 9 9 9 8 6 4 4 4 3 2 4 5 6 5 8 12 11 6 4 5 8 12 14 16 16 15 15 15 14 15 14 15 14 13 13 14 14 11
35 34 35 37 37 37 37 34 36 31 16 15 18 5 1 3 4 8 7 8 11 10 13 16 13 14 17 22 26 13 2 7 10 13 15 8 6 6 3 5 6 5 4 4 3 2 3 6 10 10 8 8 7 5 6 6 6 4 2 2 3 4 2 1 5 13 10 4 4 7 9 9 11 14 14 15 17 14 14 16 16 16 14 12 13 13 13 11
34 34 36 36 37 39 35 35 35 21 11 19 17 4 1 5 11 15 5 5 12 8 10 12 11 11 13 18 21 12 8 8 8 11 9 4 5 7 5 6 7 5 4 6 6 6 4 5 10 8 7 7 6 4 7 5 4 4 3 4 3 3 3 2 4 10 6 2 5 7 4 3 5 7 9 13 13 11 13 15 14 14 15 15 15 13 13 13
33 35 35 36 39 38 35 36 25 9 15 28 16 3 5 11 18 16 3 4 9 6 8 13 11 9 14 14 11 13 8 7 7 10 9 8 5 4 6 6 6 5 5 7 8 7 5 7 6 5 8 9 7 5 7 5 4 4 5 5 3 4 5 3 4 9 3 5 5 8 4 3 4 7 8 9 9 9 10 12 11 12 13 14 14 13 13 14
34 35 35 37 38 38 38 30 11 8 27 27 6 1 10 19 22 14 2 1 6 6 4 9 6 7 14 12 11 12 6 5 7 8 7 10 8 4 4 4 5 6 7 7 7 6 8 8 3 4 6 8 8 6 6 7 4 3 4 8 7 8 6 3 9 10 4 2 4 8 4 5 4 8 10 7 9 10 8 10 13 12 12 11 10 12 12 13
35 35 35 36 37 41 34 14 8 22 27 11 3 11 18 23 24 10 1 2 5 5 1 2 1 4 8 7 9 9 4 4 9 12 9 11 13 8 4 3 2 6 7 5 4 3 6 6 5 6 6 7 7 7 6 8 5 3 6 9 9 8 7 9 12 9 5 4 7 9 6 4 3 7 11 8 10 12 8 10 14 12 12 12 11 12 12 12
36 34 36 36 36 37 22 8 20 25 11 4 11 20 21 25 21 4 2 4 4 4 1 1 0 2 3 5 9 9 4 5 6 10 10 12 12 7 6 5 2 4 4 4 4 3 6 8 7 8 6 6 6 5 6 9 7 4 6 7 8 8 8 10 12 9 5 3 3 6 3 2 3 8 10 9 9 11 11 12 13 13 13 13 13 13 13 13
37 35 36 35 35 31 16 14 21 13 6 12 19 21 24 26 13 4 3 3 4 3 1 2 1 2 2 4 10 8 5 4 4 6 9 16 13 6 8 8 6 6 4 6 7 5 5 9 9 8 6 5 5 5 7 10 6 7 7 7 7 9 10 10 10 8 5 5 4 6 3 3 4 5 5 9 9 12 15 16 16 15 15 15 15 15 14 15
38 35 35 36 36 29 14 11 14 13 16 19 18 23 27 20 5 5 4 1 4 3 1 1 1 2 1 3 7 6 4 3 4 5 5 12 11 6 7 7 8 8 6 7 8 5 3 8 9 8 6 6 6 6 8 10 7 6 4 4 2 4 7 7 7 5 4 5 7 11 9 4 4 3 5 7 8 13 16 17 17 16 16 16 15 16 15 14
39 36 36 36 33 25 14 13 20 18 16 14 19 27 23 10 1 3 1 2 3 4 3 1 2 1 2 4 4 5 6 4 2 2 3 5 7 4 4 4 6 6 5 4 6 6 5 4 4 6 6 6 7 7 8 11 10 4 2 2 1 3 2 0 1 4 5 4 8 14 16 9 4 4 5 8 12 18 17 14 14 14 15 16 16 15 15 14
40 36 36 35 31 22 11 13 16 11 6 12 23 22 11 3 3 3 4 2 3 5 2 3 2 3 3 2 4 4 6 5 1 4 4 4 5 4 2 3 3 3 4 4 4 4 6 6 4 3 5 7 6 6 6 9 9 4 2 3 1 4 4 4 4 3 5 5 7 13 15 10 6 5 7 13 18 20 18 16 17 18 19 18 16 15 15 14
41 37 35 35 31 20 14 15 14 10 11 16 19 10 2 1 0 4 4 2 2 2 2 3 4 5 5 3 3 4 5 5 3 6 6 6 6 5 5 5 6 4 4 5 3 4 5 7 6 4 4 6 6 4 4 4 5 5 4 4 3 3 2 0 2 1 4 5 6 11 13 8 7 7 10 17 19 18 18 18 20 21 21 18 16 15 14 13
41 39 36 33 28 23 25 24 21 19 19 16 10 4 5 2 4 6 5 2 3 2 2 3 8 8 6 5 3 4 4 5 5 6 7 8 7 8 7 6 8 8 3 4 5 4 4 6 7 6 4 4 8 5 4 4 4 6 6 6 5 3 2 3 4 1 3 6 5 9 12 5 4 5 9 16 21 22 21 20 20 20 21 19 18 17 14 13
41 38 36 33 28 28 28 26 24 21 14 8 2 4 3 4 4 5 6 6 5 5 5 5 10 11 8 4 3 4 3 5 5 6 6 6 6 7 7 6 6 8 4 3 4 5 6 6 8 8 4 4 8 7 7 6 4 6 6 6 6 5 5 4 4 4 5 5 2 3 7 6 4 6 10 17 23 22 20 20 16 13 14 15 15 15 14 14
40 36 35 31 26 25 20 19 23 16 9 4 3 3 5 5 3 2 4 5 3 5 6 7 8 8 8 5 4 2 3 6 3 5 5 6 7 7 7 7 7 6 5 4 3 3 6 7 7 7 6 6 7 6 7 5 4 4 4 5 5 6 6 3 4 6 5 2 0 2 4 5 5 6 5 9 17 16 15 15 11 8 9 11 12 12 13 13
41 36 29 22 20 20 14 12 17 16 14 6 3 4 6 4 3 3 3 2 1 2 4 5 4 4 4 4 3 4 3 4 2 3 3 4 6 8 8 7 8 9 7 6 4 2 5 6 7 5 7 9 9 7 7 7 5 2 4 4 5 6 8 3 2 1 3 3 3 2 4 4 2 5 6 2 9 11 10 13 13 11 11 12 12 12 13 13
39 31 19 17 20 19 14 12 18 22 12 5 5 6 4 3 4 4 2 1 1 1 3 3 3 2 2 3 3 4 5 5 2 2 3 3 4 7 8 6 8 12 9 6 4 3 5 4 7 6 9 10 9 8 8 7 8 5 5 7 4 2 3 3 2 1 3 3 4 2 5 4 1 4 5 3 5 10 12 15 15 11 11 13 14 14 15 15
30 19 11 15 21 18 12 14 24 19 6 4 6 5 3 4 4 3 2 3 2 2 3 0 2 2 2 2 3 4 5 5 4 3 3 4 4 7 10 6 7 13 12 9 5 3 4 3 7 6 10 8 4 6 8 8 6 5 4 5 5 2 1 1 3 3 2 3 3 3 4 4 4 5 4 3 8 10 11 12 12 13 14 15 15 15 16 15
19 8 4 11 18 10 9 20 21 10 3 5 7 5 4 4 4 4 3 3 2 2 2 3 3 2 3 2 3 6 4 2 4 5 3 4 4 7 12 9 7 11 13 12 7 3 4 4 6 5 6 5 3 5 7 8 5 1 1 3 3 3 5 4 3 4 4 3 3 3 3 3 6 6 7 10 11 11 11 11 13 17 18 17 15 14 14 13
8 1 4 10 10 4 16 15 9 4 3 5 5 4 3 3 4 5 5 3 2 2 2 3 3 4 5 4 5 5 3 3 4 3 3 4 4 6 9 10 8 9 13 14 10 5 3 4 5 6 4 3 3 5 8 8 5 3 3 4 3 2 2 2 2 3 4 4 3 3 3 5 6 5 8 11 9 11 14 15 15 16 16 15 14 13 13 12
4 2 3 5 10 11 11 3 2 4 3 3 3 3 3 3 3 5 5 5 3 3 4 5 6 6 6 6 5 3 3 3 3 3 4 5 5 5 7 10 10 9 10 10 9 7 4 4 6 6 5 4 6 7 7 9 9 8 7 7 6 5 4 3 3 2 2 4 5 4 4 7 6 4 7 8 7 9 13 15 14 13 14 14 13 14 14 13
2 3 4 6 4 0 1 2 3 2 2 3 3 3 3 3 3 4 5 5 3 4 5 5 7 7 7 7 6 4 4 4 4 4 5 7 8 8 8 11 14 11 9 8 10 8 4 4 5 8 7 6 9 9 7 9 10 8 8 8 7 5 6 6 5 3 1 1 2 4 3 7 6 4 6 7 6 9 11 12 12 12 13 14 14 14 14 14
1 5 9 8 7 6 2 1 4 2 2 4 4 4 3 2 3 2 3 3 3 4 4 5 6 7 7 7 6 6 4 5 6 6 5 7 9 12 14 14 16 13 9 8 9 7 4 4 5 7 7 6 8 8 6 4 5 4 6 6 6 6 6 7 5 5 4 3 2 3 3 6 6 4 4 6 5 7 10 11 12 11 11 13 14 14 14 15
3 6 8 8 6 3 4 2 3 3 3 4 4 4 4 4 4 5 6 5 5 4 4 5 6 7 6 4 5 7 4 3 5 5 6 7 8 12 16 18 18 13 9 9 8 7 5 3 5 5 6 6 6 6 6 3 3 4 4 5 7 8 8 5 3 4 3 4 6 5 4 6 6 4 0 2 4 7 10 11 13 12 12 12 13 13 13 14
5 3 4 7 6 1 3 1 0 2 3 2 3 4 4 3 5 8 9 8 7 6 6 5 6 8 6 3 5 9 6 4 4 4 5 7 7 7 9 13 16 12 10 12 12 11 7 5 6 7 8 8 7 7 6 3 2 3 3 6 9 10 11 6 3 5 4 4 5 6 5 6 7 5 1 1 5 8 8 9 10 10 11 12 12 11 12 12
3 2 3 5 4 2 0 1 3 2 2 3 3 3 3 3 3 6 7 7 9 9 7 7 7 8 6 5 6 7 6 5 4 4 5 6 6 5 6 6 9 9 7 5 8 7 3 4 8 10 11 10 9 9 7 4 4 4 6 8 10 11 12 8 5 5 6 4 4 6 7 5 5 6 5 5 7 9 9 9 10 10 10 12 12 12 12 12
1 2 2 3 3 3 2 2 4 3 2 3 2 3 4 4 4 4 4 5 6 7 6 6 8 8 7 7 5 4 5 4 3 4 6 6 5 6 9 8 3 6 4 6 8 5 3 3 9 13 15 15 13 13 9 4 6 8 9 10 11 10 11 10 7 7 7 7 5 9 6 10 9 9 9 9 8 8 9 11 13 13 12 11 11 12 12 11
1 2 2 3 3 2 2 3 5 6 5 4 2 3 4 4 4 3 3 5 7 6 5 4 6 8 10 11 7 4 4 2 4 5 5 5 5 6 8 7 3 3 1 4 8 6 4 5 7 10 15 17 16 16 14 8 6 8 8 11 13 12 12 13 11 9 10 9 8 8 9 12 12 11 12 13 13 13 13 13 12 10 10 10 10 11 11 12
2 2 3 3 2 3 4 7 8 7 7 5 3 4 3 3 4 4 3 4 7 5 2 1 5 7 6 10 9 4 4 4 2 4 3 3 5 4 4 5 4 4 6 2 3 4 5 6 7 9 12 14 15 17 16 12 10 9 9 11 12 13 16 17 12 10 12 10 8 10 13 13 12 13 15 14 11 9 7 6 6 8 9 10 11 12 13 13
2 2 3 3 3 5 5 5 5 5 6 4 3 3 3 2 3 6 6 4 6 7 4 2 6 9 9 5 7 5 5 7 5 4 4 5 5 1 1 3 4 6 7 3 2 0 3 6 6 9 7 10 12 15 15 13 13 13 13 13 12 12 13 12 7 6 7 4 3 9 12 11 8 6 6 4 4 5 5 7 9 10 11 12 11 12 12 12
5 6 5 4 4 5 3 3 3 3 4 3 2 2 4 3 4 9 9 6 6 5 3 4 8 6 7 5 3 5 3 4 6 8 9 8 7 4 3 4 4 6 7 3 2 1 3 4 2 6 6 8 10 13 15 12 10 12 13 14 12 9 8 6 4 6 8 5 5 7 8 10 7 3 5 4 5 6 7 10 10 8 9 11 12 11 11 10
8 7 5 3 3 4 3 3 3 2 3 2 3 5 5 7 9 9 7 5 3 4 5 7 7 3 2 6 4 1 4 5 7 9 9 9 10 8 6 8 8 5 4 3 3 0 4 2 2 5 6 7 8 10 11 7 5 8 10 9 9 8 7 5 3 3 6 8 8 6 7 9 6 7 7 5 6 7 6 7 6 6 6 7 8 9 9 8
Wind_Direction
2 3 2 1 359 358 357 356 354 353 354 354 354 354 354 354 353 354 353 350 348 347 346 344 339 336 334 333 330 325 324 320 308 277 238 263 267 264 259 254 256 256 238 244 253 238 251 298 311 150 145 155 160 228 215 192 183 87 88 102 209 192 196 187 166 169 155 155 160 161 153 141 142 139 113 108 113 127 132 96 97 81 93 126 135 144 151 155
0 0 359 359 357 357 355 354 353 351 351 351 351 351 351 351 351 351 350 348 346 345 344 341 339 335 333 334 328 324 324 315 301 264 257 270 273 265 258 249 242 243 238 238 230 201 176 89 98 106 107 60 265 235 211 218 167 128 121 139 217 209 202 187 158 160 155 155 159 158 155 146 139 136 139 137 136 137 120 108 107 102 108 123 137 146 152 156
357 358 357 357 355 355 353 352 351 350 349 349 348 348 348 349 349 349 348 346 344 343 341 339 339 336 334 334 329 323 322 317 295 265 265 273 272 263 253 240 232 234 236 235 226 205 183 141 94 83 85 278 267 233 226 262 211 180 140 163 227 210 210 198 156 158 159 153 151 153 151 141 139 141 150 143 141 150 143 142 136 131 140 142 146 150 154 160
355 355 355 355 354 353 352 350 349 348 347 346 346 346 346 346 347 347 346 344 342 341 339 338 339 336 334 333 328 321 324 323 273 258 239 213 336 308 255 226 222 227 228 222 214 193 176 126 78 77 87 272 287 224 200 224 216 183 157 197 219 185 194 203 163 158 155 149 148 148 140 138 146 144 146 138 135 163 177 171 156 150 155 153 154 157 159 161
354 352 352 352 351 351 350 349 347 347 346 344 344 343 343 343 344 344 343 342 339 338 336 336 336 335 335 331 326 320 329 355 288 279 212 218 277 321 281 214 210 220 218 207 195 166 158 117 87 74 74 336 301 245 218 212 174 187 218 217 206 166 178 193 159 151 150 144 143 144 142 146 151 149 152 148 152 185 185 182 162 153 158 159 159 161 161 158
353 351 351 349 349 349 348 347 346 345 344 343 342 341 341 341 341 341 341 339 337 336 333 332 333 333 334 329 324 317 326 289 292 300 286 269 279 301 273 203 201 211 211 205 191 151 141 114 97 110 105 55 257 234 257 235 153 212 259 239 197 175 173 172 150 151 148 142 147 149 147 146 144 154 164 160 167 177 165 164 159 154 156 157 158 160 162 162
352 350 349 348 347 346 345 346 344 344 342 341 340 339 339 338 338 338 337 337 334 333 329 326 328 330 333 329 318 336 90 253 284 303 302 294 294 288 231 190 192 201 206 198 172 140 118 104 122 145 113 35 250 236 272 274 166 198 264 268 184 169 157 150 149 149 141 141 148 142 142 150 151 156 167 165 138 140 141 148 149 147 151 154 159 163 164 165
349 348 348 347 345 344 344 343 343 342 341 339 338 337 337 335 335 334 334 333 331 330 325 321 323 327 334 335 320 333 264 252 293 313 308 305 307 266 191 180 186 194 197 191 172 145 111 108 162 161 121 216 225 228 268 317 321 209 230 231 151 140 133 133 137 134 125 130 132 129 140 155 150 136 142 151 124 131 136 141 142 142 150 156 162 165 165 167
347 347 347 345 344 343 342 342 341 340 339 338 336 336 334 333 333 332 331 329 328 327 320 315 314 323 333 335 67 335 262 255 331 339 329 321 313 215 178 176 184 188 183 189 172 140 136 159 192 186 160 225 235 240 289 49 311 250 194 151 127 118 127 129 129 129 124 131 128 124 130 137 132 111 85 141 136 134 135 139 143 145 153 160 165 167 167 171
346 347 346 345 343 342 341 341 340 339 338 336 335 334 332 331 331 329 328 325 325 323 316 307 300 315 325 302 73 330 267 271 7 3 357 348 313 187 176 180 185 183 169 172 164 140 155 181 190 186 167 261 245 272 356 108 252 277 126 131 133 128 131 131 127 126 120 128 131 124 127 134 132 114 109 157 142 138 138 142 149 151 158 162 166 169 170 175
346 347 346 344 343 341 341 340 339 338 336 334 333 332 331 330 329 327 324 322 321 320 310 295 289 281 177 141 142 249 260 241 331 343 340 337 299 187 181 188 190 188 170 134 152 160 172 194 202 98 155 287 339 310 306 231 318 337 127 117 124 124 126 130 126 128 118 118 132 120 117 121 108 128 150 156 150 146 144 148 156 158 162 164 167 171 173 181
345 347 347 344 342 341 340 339 338 337 335 333 331 330 330 329 328 323 321 320 319 316 301 282 266 191 185 135 206 246 265 259 295 318 311 309 289 206 190 198 203 201 187 143 153 184 193 218 257 37 216 284 356 309 302 321 359 45 126 114 121 117 125 140 133 138 126 133 143 115 103 116 177 167 152 151 152 152 150 153 161 162 165 167 169 173 178 187
343 346 346 344 343 341 340 338 337 336 335 332 329 329 330 328 326 321 319 319 317 310 287 257 218 183 149 219 239 266 283 283 296 303 284 279 278 236 219 224 220 214 202 178 162 183 202 215 202 200 226 54 287 263 324 343 42 83 128 124 127 105 145 172 144 140 131 152 157 114 113 233 245 159 151 152 154 153 155 160 165 167 170 172 174 178 186 193
344 346 344 343 343 341 340 338 337 336 334 331 329 329 330 328 325 321 319 318 317 305 252 201 178 161 134 255 269 286 294 291 288 282 260 246 251 246 245 247 240 228 214 202 181 176 207 216 200 184 232 168 228 296 346 344 64 101 296 126 132 131 177 216 176 144 135 173 170 96 128 214 187 163 157 158 159 156 162 168 170 172 176 177 180 184 191 199
344 345 344 343 342 341 340 338 337 337 334 331 328 329 332 329 325 324 324 322 325 288 186 158 159 149 46 275 282 300 297 287 276 265 242 226 227 240 247 244 240 227 218 218 208 210 221 222 203 156 266 231 150 0 359 349 48 123 168 158 170 158 171 227 232 161 146 184 208 85 115 194 170 171 164 161 165 162 166 173 176 178 181 182 185 190 195 201
342 344 343 342 341 341 339 338 338 338 335 331 328 332 335 329 328 335 340 359 40 126 133 126 163 156 345 278 294 318 284 262 267 257 228 221 219 229 237 230 229 212 207 220 220 230 232 223 216 163 213 270 138 76 25 2 9 142 161 175 191 160 163 203 233 214 163 169 207 119 137 167 171 176 170 166 170 169 170 176 180 183 184 184 187 194 197 200
341 343 342 342 341 339 338 338 338 338 335 331 332 335 335 330 341 2 44 76 86 139 127 74 45 101 261 269 295 315 297 276 308 313 259 232 226 229 223 167 198 185 186 213 213 223 218 197 225 168 87 259 135 112 61 330 290 293 199 177 188 162 165 176 195 236 198 167 180 152 151 166 168 171 172 173 173 173 175 179 183 185 186 187 188 193 198 199
340 340 341 342 341 339 338 337 338 339 335 333 337 336 334 346 14 43 94 85 76 147 126 39 54 11 272 272 293 292 302 308 313 314 297 259 232 224 207 164 155 136 142 206 199 182 191 214 170 149 331 69 115 117 146 228 201 200 199 173 175 170 173 181 180 196 196 181 165 140 152 165 160 167 176 178 177 178 181 182 182 184 186 187 188 190 196 200
339 339 340 342 341 338 337 337 338 339 334 336 343 339 338 10 11 66 119 77 49 199 266 254 168 275 282 284 287 286 298 303 302 300 286 257 229 215 201 181 131 126 133 160 201 184 171 144 113 158 219 209 179 162 183 214 194 181 200 179 170 175 185 191 184 176 175 175 161 156 162 163 163 172 180 181 181 184 185 182 182 184 186 186 189 191 192 197
340 339 340 341 341 338 335 337 338 337 337 341 347 348 4 12 358 326 310 289 232 226 245 240 217 248 270 279 280 289 306 305 291 285 277 254 197 178 187 181 122 135 148 152 185 189 153 174 207 190 198 200 199 195 195 210 193 173 214 251 193 180 193 196 182 175 168 160 186 179 162 164 171 177 183 181 182 188 185 184 187 187 188 189 191 193 192 197
339 338 342 342 340 337 335 336 336 336 339 344 351 2 25 351 4 326 320 287 252 218 234 243 228 239 251 260 266 280 319 312 283 275 280 275 172 147 195 185 154 193 187 158 167 191 151 180 219 210 193 196 207 205 198 207 206 197 206 268 253 207 201 195 169 175 171 152 185 181 160 174 179 179 183 178 182 193 188 185 191 192 193 193 193 195 195 198
338 339 342 340 338 335 333 335 335 334 335 345 354 16 240 327 342 324 318 292 273 217 227 248 235 242 247 251 259 252 218 275 287 284 278 270 171 174 205 166 167 207 198 149 138 199 198 207 226 216 179 191 221 198 184 215 222 218 181 149 253 262 220 88 163 173 171 145 175 178 172 186 186 182 185 184 188 195 190 189 192 191 192 195 196 196 195 194
337 339 341 340 337 334 332 334 333 329 336 342 333 299 328 345 340 337 325 279 287 234 214 239 230 235 239 247 249 216 183 224 254 273 260 172 167 188 172 162 178 192 182 173 176 185 206 239 230 204 148 177 224 190 169 208 230 212 182 159 211 238 192 228 182 168 166 114 157 161 157 187 191 193 200 198 198 198 195 196 194 191 193 196 198 196 192 191
336 340 341 338 336 332 331 332 331 326 335 331 312 252 16 345 343 350 353 254 287 258 206 220 220 218 229 239 210 174 190 201 196 254 237 166 162 175 168 169 168 190 203 186 183 189 224 252 226 162 149 180 211 197 164 180 236 239 202 187 199 199 209 246 153 145 91 24 118 117 61 318 206 201 215 210 210 213 204 200 199 202 203 201 199 196 194 192
336 340 339 338 337 331 330 332 332 331 330 327 293 256 341 334 342 353 7 293 284 282 234 225 228 224 227 217 169 160 190 208 196 228 207 171 174 162 182 181 154 200 211 177 175 199 237 245 207 160 173 183 204 211 179 175 207 278 227 201 206 205 202 160 137 137 100 0 185 138 123 278 241 208 216 207 209 217 209 201 205 207 208 207 202 201 201 197
336 339 338 337 336 333 335 337 326 327 326 319 271 320 323 330 343 351 111 36 290 282 308 237 232 223 225 190 159 144 146 233 223 218 208 189 184 164 179 210 168 200 192 168 176 201 224 217 196 208 201 180 202 221 197 170 161 264 238 199 203 216 199 161 152 152 151 200 207 172 170 245 252 222 219 209 214 219 216 212 211 207 205 204 202 203 202 197
335 337 336 335 335 338 340 312 314 322 317 284 314 322 325 333 344 358 121 11 300 265 211 250 50 190 228 185 154 134 164 239 224 218 210 190 183 160 180 204 178 194 170 151 210 216 188 191 200 211 205 188 201 224 198 156 143 235 231 178 188 221 217 183 167 174 184 140 160 184 153 107 219 227 205 195 215 224 226 226 219 212 207 204 204 203 200 197
334 335 334 332 332 333 323 293 306 307 279 306 318 323 329 335 346 94 78 347 276 279 214 233 247 218 250 174 157 153 201 204 178 226 203 182 182 158 187 201 170 189 187 168 217 252 185 190 203 198 201 209 205 212 186 153 164 239 222 175 188 219 220 195 177 189 183 117 155 209 169 120 246 255 174 180 210 223 228 227 221 214 207 203 203 203 201 199
333 332 330 330 327 325 322 284 279 284 297 309 321 327 330 332 346 98 72 288 272 309 255 243 272 250 356 132 177 191 198 167 190 235 174 175 188 167 190 199 169 194 215 184 208 255 213 192 189 184 199 215 215 214 171 159 199 238 204 168 169 223 223 199 183 180 150 147 191 203 188 187 264 258 164 172 209 224 228 226 221 215 208 205 203 202 201 198
332 329 327 329 322 320 327 283 276 295 305 312 329 329 328 327 92 107 167 237 298 289 252 338 336 293 84 130 210 223 197 206 223 169 117 168 195 184 183 174 152 184 226 213 205 225 248 237 184 178 193 195 212 216 174 179 207 208 116 140 59 351 327 177 138 117 134 197 217 200 191 191 231 246 190 182 205 213 217 223 220 214 209 207 204 200 198 196
330 326 325 323 312 307 313 286 290 313 316 324 332 329 325 339 95 137 214 236 303 283 300 356 337 358 35 152 230 225 202 230 208 146 157 166 184 198 170 151 145 168 220 239 243 247 252 255 242 215 199 180 196 222 194 193 201 177 127 157 214 324 8 26 11 77 169 225 238 208 195 191 214 241 211 207 215 212 210 215 213 208 208 206 203 200 197 195
328 325 321 315 306 286 259 267 286 287 289 314 327 334 51 68 12 192 226 338 320 271 7 330 321 1 354 314 264 217 206 224 191 169 179 166 177 201 190 183 175 176 224 220 238 275 238 238 256 275 247 189 183 227 235 207 168 152 147 137 173 276 3 134 261 195 205 240 238 196 183 196 231 233 213 212 220 218 214 215 211 206 204 201 198 199 196 192
327 324 318 313 306 279 265 277 277 266 278 300 319 13 88 154 230 211 217 274 245 232 50 314 325 346 342 342 316 243 227 224 199 181 187 174 173 199 211 211 176 168 197 200 200 225 232 259 256 246 265 200 183 204 229 220 163 156 165 157 175 183 140 214 238 259 244 256 250 184 174 201 268 254 220 210 216 218 215 216 213 206 201 196 195 194 192 191
327 325 318 312 304 288 281 280 267 253 262 284 344 70 115 206 232 215 216 231 255 315 350 337 334 337 335 331 266 229 224 241 215 175 185 173 166 200 221 232 196 166 147 165 192 189 196 240 234 218 228 190 191 203 193 188 179 178 169 155 171 171 163 206 214 199 222 243 273 141 168 191 204 226 217 207 215 217 216 220 215 206 200 193 193 191 189 192
327 325 320 314 304 299 294 269 254 233 192 161 91 122 194 220 233 214 223 231 262 310 313 322 322 314 314 299 256 229 211 240 223 159 183 182 179 197 199 210 214 179 150 177 212 189 194 233 244 229 225 196 200 207 176 174 229 215 137 131 187 188 178 198 196 186 185 199 198 141 196 215 207 247 265 219 218 215 217 228 217 197 192 184 189 192 188 194
330 330 325 314 306 312 309 257 225 186 162 144 118 187 214 220 211 195 214 206 172 270 304 328 308 278 299 297 312 352 305 257 212 161 211 210 197 200 196 203 202 186 175 182 211 190 181 245 264 234 237 225 210 208 183 174 202 197 136 182 214 175 157 168 233 209 107 156 237 191 219 282 284 278 321 296 207 197 200 218 213 197 181 176 189 193 192 195
332 332 322 307 316 318 297 242 187 167 158 139 169 208 223 222 217 212 247 309 219 291 30 21 303 287 300 297 312 350 350 326 282 205 234 236 223 206 202 214 195 190 189 177 213 215 159 252 276 212 227 244 215 215 229 195 172 183 208 205 188 122 122 132 182 14 73 184 255 199 197 242 225 234 313 11 167 181 190 202 206 195 178 184 194 194 195 196
326 320 300 308 327 318 271 199 166 160 145 145 200 230 210 217 236 220 286 342 338 354 28 24 266 279 268 294 306 321 354 343 308 298 256 227 246 212 197 208 200 195 194 181 208 243 161 246 292 218 210 239 201 197 245 241 203 209 225 181 149 164 230 145 166 177 155 202 260 278 230 218 195 214 256 216 182 187 192 191 192 188 187 194 197 196 197 195
323 311 306 334 340 320 196 165 157 150 116 164 209 234 204 231 264 253 277 315 309 311 303 235 217 253 272 278 288 304 327 294 275 301 265 215 255 226 194 194 205 197 193 185 192 220 159 196 274 256 215 219 180 174 221 245 244 218 132 158 155 170 182 182 168 164 181 199 216 272 286 245 225 212 199 208 201 183 177 179 189 195 196 196 195 194 194 190
333 306 313 346 358 116 146 149 157 146 154 183 202 220 223 250 263 265 259 237 233 258 243 233 225 247 275 271 262 275 281 249 240 259 254 226 260 257 211 197 200 192 191 190 188 189 172 186 235 275 273 221 210 206 201 207 210 193 199 207 188 125 144 174 170 142 152 167 176 215 266 261 251 206 187 212 209 176 176 184 193 198 197 197 195 191 189 191
338 323 294 62 74 114 130 136 255 164 179 235 207 214 250 250 252 286 277 239 224 233 235 247 249 253 270 270 257 241 259 274 243 231 262 244 231 255 230 206 200 185 179 190 196 193 184 186 214 252 266 232 238 238 202 187 189 188 198 206 185 159 129 148 229 247 127 157 171 175 227 262 259 203 193 214 196 176 188 189 190 193 191 194 198 193 190 192
322 324 233 145 93 319 155 302 273 175 201 244 215 222 246 246 246 265 272 262 238 225 230 238 244 249 256 258 253 235 245 273 265 244 248 237 225 230 229 216 208 188 163 182 204 194 159 149 199 235 245 234 241 246 224 203 201 199 210 205 178 155 136 149 206 235 191 203 138 126 209 263 262 215 207 226 204 182 191 189 184 187 188 192 197 195 193 196
226 301 272 248 263 259 190 255 281 255 233 246 257 260 241 248 262 246 254 265 237 223 226 225 233 236 234 240 250 248 245 250 250 246 255 261 249 237 227 213 208 197 170 183 201 191 164 143 181 230 260 270 266 269 267 218 181 211 245 213 173 176 170 161 177 180 183 204 139 132 237 264 274 258 223 234 220 176 180 184 182 184 189 194 196 196 197 201
277 283 282 289 290 209 182 235 260 243 258 272 275 275 259 247 251 251 248 235 216 224 240 232 229 232 232 244 262 266 271 257 251 261 276 284 272 250 234 215 207 199 183 185 182 177 200 182 162 201 244 267 274 276 286 286 162 189 237 212 193 187 165 142 123 136 192 213 162 160 229 250 273 294 260 178 184 177 182 182 181 184 189 194 196 197 199 202
306 257 252 301 321 217 196 223 301 271 300 319 294 280 274 252 236 239 245 243 232 231 246 251 242 239 239 254 278 281 283 273 279 299 294 285 286 282 257 225 210 205 206 199 177 167 189 188 165 187 213 223 228 228 237 242 193 200 210 204 203 184 167 162 129 141 210 226 155 159 212 251 280 299 335 188 185 186 192 187 187 193 191 192 195 196 199 202
327 290 274 307 335 19 322 16 35 7 338 349 321 267 246 256 259 249 250 251 238 227 230 241 246 250 245 236 262 280 278 266 268 292 303 295 290 303 308 270 219 209 224 203 166 152 157 181 182 192 208 212 209 220 222 168 156 204 209 203 208 194 177 158 127 164 188 166 173 210 196 193 251 250 225 227 208 196 194 186 190 200 197 195 195 195 199 202
311 283 326 337 325 348 2 24 39 22 313 305 301 268 260 272 286 281 264 259 251 241 236 228 228 230 217 208 219 243 250 260 276 289 296 290 281 296 312 319 259 205 191 156 157 141 107 201 198 195 209 215 210 217 218 165 171 206 204 200 207 200 177 161 170 189 160 137 211 250 198 173 207 220 210 214 213 208 206 194 194 199 195 192 194 196 199 201
280 271 2 4 305 313 345 334 343 329 294 278 268 261 263 275 298 305 282 295 293 265 238 229 241 238 212 194 189 201 220 256 320 306 286 277 300 321 323 328 314 287 346 144 168 155 143 218 212 198 213 220 218 223 223 209 212 218 209 205 204 191 180 186 194 180 153 163 213 223 189 186 199 204 204 206 201 200 205 200 194 191 184 182 187 191 196 202
306 303 352 5 311 283 283 293 304 305 296 289 267 252 261 286 302 308 304 314 309 286 249 242 276 288 257 203 190 196 197 180 264 286 270 288 310 327 327 310 286 323 4 25 202 170 167 213 202 190 217 226 222 230 231 225 231 238 232 221 208 191 188 195 197 178 173 190 201 179 182 197 202 198 204 207 197 191 191 174 162 170 177 179 182 188 196 202
347 306 332 350 309 281 272 280 293 300 301 287 252 264 305 296 304 325 322 290 280 298 331 300 277 305 309 248 184 170 177 160 167 230 259 300 305 262 250 275 279 326 345 327 282 166 185 224 198 171 209 237 224 226 232 227 229 235 238 233 218 199 193 193 182 168 182 203 161 152 178 211 226 202 191 180 136 120 133 157 174 185 185 179 180 189 198 201
328 291 303 319 296 282 275 288 303 300 292 275 255 324 332 317 326 329 309 262 245 276 308 291 282 301 316 289 178 136 146 161 179 221 244 260 264 244 233 253 272 313 320 299 309 27 171 241 225 149 185 235 223 220 229 228 229 241 246 240 225 198 186 187 163 165 177 164 112 121 173 221 232 140 92 86 124 156 180 185 184 185 182 178 184 190 194 196
337 309 307 302 280 290 307 312 311 278 264 296 347 342 319 304 314 319 305 292 294 301 306 297 287 298 309 286 280 358 319 283 242 241 243 242 248 248 249 256 253 255 270 282 298 200 142 180 232 157 182 234 229 206 206 199 211 245 249 228 203 176 158 145 133 170 169 146 138 161 206 221 201 147 132 135 159 181 206 207 184 162 155 165 181 187 187 190
Height
803 801 800 798 796 795 793 791 789 787 786 784 783 781 779 778 775 774 772 769 767 765 763 762 759 758 756 754 753 750 748 746 744 744 741 730 727 730 729 730 731 732 732 733 734 736 737 739 740 741 742 743 746 747 745 743 743 752 769 783 788 788 784 776 777 778 777 781 780 778 776 780 788 785 781 782 788 790 793 793 791 791 789 792 794 796 799 802
803 801 799 798 796 794 792 790 788 787 785 783 782 780 778 777 774 773 770 768 766 764 762 760 759 757 755 754 751 749 747 744 742 740 732 723 724 726 726 727 729 730 730 731 732 733 737 740 739 740 744 747 748 746 748 746 745 758 773 784 786 780 771 762 765 766 768 774 775 775 774 776 781 782 781 789 798 795 798 799 796 798 796 795 795 797 801 802
802 800 799 797 795 793 791 789 787 786 784 782 780 779 777 775 773 771 769 767 765 763 761 759 758 756 754 753 750 749 746 743 742 733 722 720 722 721 722 724 726 728 729 730 731 732 735 737 737 740 746 752 750 749 752 750 750 757 767 781 779 767 763 757 758 761 761 765 772 776 773 775 777 776 780 789 798 797 800 799 798 804 801 798 797 797 800 802
801 800 798 796 795 792 791 788 787 785 783 781 779 778 776 774 772 770 768 766 764 762 760 758 757 755 754 751 750 749 745 745 739 723 717 719 720 719 720 721 723 726 728 730 731 732 733 734 736 740 748 756 752 750 755 752 752 756 762 773 765 758 764 757 754 757 757 761 768 774 775 780 777 773 780 787 799 804 798 792 790 796 798 797 797 797 799 801
801 799 797 795 793 792 790 788 785 783 782 780 778 776 774 773 771 769 767 765 763 761 758 757 756 754 753 750 751 747 748 754 735 716 719 719 718 719 718 719 721 725 727 730 731 731 733 734 737 743 751 757 756 755 757 748 747 757 757 756 752 754 762 755 751 755 756 760 767 772 776 778 774 775 780 783 796 797 788 785 783 785 789 791 793 796 798 800
801 798 796 794 792 791 788 787 784 782 781 778 777 774 773 771 769 768 766 763 761 759 757 756 754 754 752 750 750 747 752 754 728 716 721 717 717 717 716 718 720 724 726 729 730 731 734 736 741 750 754 757 759 758 755 745 744 758 755 745 745 747 753 751 750 753 754 761 768 771 771 770 776 782 779 779 785 780 776 779 781 782 784 787 790 794 797 799
800 798 796 793 791 789 787 785 783 781 779 777 775 773 771 769 767 766 764 762 760 758 756 754 753 753 751 750 749 747 752 744 721 718 720 716 717 714 714 716 718 723 725 727 729 732 735 739 745 750 755 759 759 756 752 744 743 756 755 745 743 741 745 748 748 751 753 761 764 763 767 771 779 783 780 781 780 774 775 778 780 784 785 789 792 793 796 798
799 797 795 793 790 788 786 784 782 780 778 775 773 771 769 767 765 764 761 761 758 756 755 752 752 752 751 749 748 751 750 735 719 719 717 715 715 711 713 714 718 722 722 726 728 732 736 741 745 746 756 759 754 753 749 746 747 752 752 746 743 742 745 746 748 753 755 760 760 763 772 774 774 777 782 785 780 776 777 779 782 785 788 791 793 794 796 798
798 796 794 792 789 787 785 782 780 778 776 773 772 769 767 765 763 761 759 758 755 755 752 751 751 750 751 749 750 754 741 724 719 718 716 715 714 712 713 713 717 720 722 726 726 732 736 741 743 741 752 753 749 751 747 753 756 748 746 745 745 746 747 748 751 754 757 759 760 769 778 777 771 775 787 786 779 778 778 782 784 786 791 793 794 795 796 798
798 795 793 791 788 786 783 781 779 776 774 772 770 767 765 763 761 759 757 755 753 752 750 750 750 749 751 747 753 756 731 717 720 717 716 716 715 714 714 714 717 719 722 725 727 731 733 736 737 733 742 746 747 750 747 753 753 742 743 745 746 748 748 749 754 755 757 760 760 770 781 779 771 777 793 789 778 779 781 786 787 788 792 793 794 795 796 798
797 795 793 790 787 785 782 780 777 775 772 769 767 765 763 761 759 756 754 752 750 750 749 748 748 748 749 747 755 751 724 716 719 716 717 717 716 716 714 716 717 718 722 725 728 730 729 731 729 732 743 745 746 749 745 743 742 740 743 751 752 751 753 752 756 758 759 766 763 766 780 780 776 782 789 784 779 780 783 789 789 790 793 792 795 795 796 798
797 794 792 789 786 784 781 779 775 773 770 767 765 762 761 759 756 753 751 750 748 747 747 746 748 747 747 749 749 735 719 718 718 716 718 717 718 718 716 717 717 719 722 725 728 727 729 728 728 738 744 743 750 753 745 737 740 742 745 760 765 759 762 759 757 757 759 769 763 763 786 791 785 787 784 779 779 781 785 790 791 792 793 793 794 795 796 797
796 793 791 788 786 783 780 777 774 772 768 765 762 760 759 756 753 751 748 747 746 745 745 745 746 745 748 747 732 720 718 719 717 716 717 716 718 718 717 718 718 720 722 724 727 726 728 728 729 738 737 741 752 748 739 736 740 749 751 762 772 776 777 764 757 758 760 766 755 762 798 804 791 787 781 778 779 783 789 791 791 793 793 793 794 795 796 795
795 793 790 787 785 782 779 776 773 770 766 763 760 758 756 753 751 748 746 745 743 744 744 745 746 745 749 739 719 716 718 716 716 714 714 716 716 716 718 718 718 721 723 724 726 725 727 726 728 734 735 739 744 739 742 746 745 757 764 766 775 788 787 767 758 762 766 767 752 762 798 804 793 787 780 778 779 784 791 791 791 793 792 793 794 795 796 794
794 791 789 786 784 781 778 775 772 768 765 762 758 756 754 751 748 745 744 744 742 743 743 744 745 745 748 735 716 715 716 714 714 712 713 715 715 716 716 717 719 720 723 724 725 726 726 726 731 739 739 735 738 747 757 759 755 761 778 785 781 785 786 772 761 761 766 767 756 767 797 802 792 787 779 777 780 783 789 791 791 791 792 793 793 793 795 794
793 790 787 785 782 779 777 774 771 768 764 760 756 755 752 749 746 744 744 742 743 744 744 746 744 745 749 734 715 714 715 713 712 711 713 714 714 715 714 716 718 720 723 723 724 725 725 728 732 737 740 740 746 757 765 770 770 767 779 791 785 783 789 781 767 758 757 763 764 770 792 800 791 784 779 777 780 784 788 790 789 790 790 791 792 792 793 793
793 790 787 784 781 778 775 772 770 767 763 759 755 752 750 747 745 744 743 743 744 744 745 746 745 747 742 722 716 718 714 712 712 712 713 712 713 713 714 717 718 719 722 723 725 726 727 731 735 738 742 747 751 759 774 785 784 777 778 784 781 780 786 785 776 762 756 763 769 771 782 789 783 780 779 777 778 783 787 789 788 788 789 789 790 791 791 792
792 789 786 784 781 778 774 772 769 765 762 758 755 751 748 747 745 745 744 743 744 744 746 746 746 752 739 720 720 720 714 713 712 711 712 711 711 711 713 716 717 720 725 729 730 730 734 735 739 748 751 753 755 763 780 784 778 777 779 779 779 779 780 781 774 762 760 766 771 775 782 784 780 779 779 776 777 781 784 784 785 785 786 787 788 789 790 790
791 788 785 783 780 777 774 771 768 765 760 756 755 751 747 746 745 745 744 744 746 748 748 745 745 750 740 723 718 714 712 713 711 709 710 710 710 711 713 715 717 723 732 739 738 734 737 741 748 757 759 758 758 761 766 765 762 767 770 770 775 778 776 770 762 754 757 770 775 776 780 782 782 781 780 777 776 780 782 782 783 784 784 785 786 787 787 788
790 787 784 781 779 775 772 770 767 764 760 756 754 749 749 752 751 749 745 743 745 744 742 740 739 739 735 723 714 713 712 711 710 708 707 709 709 712 715 716 721 727 734 741 742 734 735 750 758 757 758 754 752 752 751 751 754 759 765 767 768 772 771 762 757 753 752 769 779 774 776 780 780 779 777 776 777 780 783 783 783 783 783 783 783 783 783 784
789 786 783 780 777 774 771 769 767 764 761 759 756 754 758 761 763 761 752 741 735 735 735 730 730 731 725 718 711 713 717 714 711 706 705 707 708 716 721 721 731 738 736 735 737 733 737 754 756 748 748 746 745 747 748 751 754 757 762 767 769 771 768 759 756 754 751 766 779 775 778 781 777 777 775 774 779 780 779 781 781 780 780 779 779 780 780 779
789 785 782 779 776 773 770 767 765 763 762 760 759 761 762 762 763 762 759 749 731 726 730 723 723 724 715 712 708 712 723 724 718 707 702 705 710 720 723 724 736 740 736 735 740 744 749 754 746 739 742 742 744 747 750 753 754 757 761 767 772 769 766 760 755 755 754 766 779 778 781 783 777 775 774 773 774 774 772 773 775 776 778 779 779 779 778 779
788 784 782 779 775 772 768 766 764 761 761 761 760 761 761 760 759 757 759 757 734 719 722 719 719 719 712 710 705 709 723 726 724 713 700 705 713 717 721 727 735 737 737 740 745 754 758 750 736 734 739 743 748 748 751 755 756 758 761 767 772 766 767 769 763 761 759 764 776 780 784 786 781 780 777 773 771 770 769 769 770 772 774 775 774 774 776 778
787 784 782 778 774 770 766 765 761 760 761 759 759 758 758 758 757 756 756 755 738 716 710 708 706 707 704 701 699 707 717 716 718 711 698 704 714 715 719 725 733 737 738 738 742 750 752 739 729 734 740 743 749 750 752 758 762 760 758 762 766 762 764 767 764 764 764 769 773 780 796 796 787 789 785 775 773 772 770 771 773 772 771 770 770 772 773 774
786 784 781 777 775 769 765 764 760 761 759 757 757 755 756 756 754 755 754 755 746 720 706 702 699 697 691 692 697 701 710 709 706 702 694 698 708 715 719 719 727 739 739 737 742 747 744 732 727 736 741 742 747 751 751 755 762 762 755 752 754 754 758 762 763 766 778 788 777 779 808 810 790 789 788 779 777 776 773 774 775 773 771 772 774 773 772 772
786 784 780 777 774 767 764 762 760 762 759 756 755 753 755 753 752 753 754 764 756 726 711 707 703 696 688 693 694 695 714 714 696 692 692 694 697 706 719 720 722 733 734 734 739 741 736 728 728 735 740 743 748 750 746 746 761 766 751 741 744 748 755 761 762 769 784 790 772 768 796 808 796 789 785 780 781 778 775 774 772 771 771 771 772 772 771 771
785 782 779 778 774 770 769 765 763 763 759 755 753 752 752 749 751 748 754 779 765 723 712 711 702 696 689 691 690 700 724 713 692 691 689 693 693 696 717 724 723 727 724 730 743 738 728 728 731 733 737 744 749 750 742 739 757 761 740 734 742 746 753 759 760 766 771 772 772 771 779 797 800 787 778 779 783 782 778 775 771 768 768 768 768 768 768 768
783 780 779 776 773 774 773 769 766 762 758 754 751 752 749 746 749 745 765 795 762 712 709 707 694 689 687 689 689 698 707 700 702 700 682 687 694 697 716 722 721 725 717 728 747 734 721 729 732 732 739 745 743 741 734 735 749 746 730 732 739 741 748 752 756 764 762 770 790 786 777 795 801 783 775 779 784 785 779 772 767 764 764 764 764 764 764 764
781 778 776 774 772 771 771 770 766 759 754 752 751 750 746 746 746 748 779 793 746 707 706 700 693 691 691 695 696 695 694 695 704 697 681 689 692 695 713 714 714 723 717 722 737 730 719 720 721 726 737 739 734 730 728 734 740 731 726 734 737 740 745 749 757 764 766 780 797 789 777 792 798 785 781 785 786 782 772 763 759 758 759 759 759 760 760 761
778 775 774 772 769 768 768 767 760 754 752 751 751 748 744 747 748 768 798 783 739 718 707 700 702 700 699 706 706 700 698 698 696 690 690 695 693 694 702 703 707 719 721 721 727 725 716 710 711 718 724 724 722 723 723 727 727 724 730 739 744 748 748 752 758 762 778 792 790 779 771 780 793 789 781 778 770 761 757 757 755 754 755 754 754 755 756 758
774 771 770 770 768 767 767 762 754 752 752 751 751 747 747 751 758 785 794 759 733 724 709 708 710 704 706 713 713 706 703 701 695 697 703 701 703 706 707 711 716 723 730 729 728 725 719 717 716 712 708 710 717 722 721 720 721 728 737 743 753 760 759 765 767 769 790 797 779 768 767 776 790 784 770 760 746 740 746 748 748 748 748 748 749 750 751 753
771 767 765 764 763 764 762 756 751 753 752 752 753 749 752 765 774 780 767 742 737 729 717 719 715 709 712 713 713 709 706 705 698 700 707 707 714 715 714 720 723 734 745 740 735 732 726 722 717 711 704 704 718 729 727 724 726 734 742 749 765 777 780 786 787 786 793 785 766 763 768 779 782 764 752 750 740 735 736 733 733 736 737 740 744 745 746 749
767 762 759 757 757 755 752 750 750 752 752 753 755 752 758 777 778 763 751 744 736 721 717 720 714 711 714 714 715 709 707 708 700 701 704 705 715 716 713 713 712 727 742 739 739 740 736 726 715 717 713 703 712 730 736 734 733 738 744 752 767 782 794 801 799 798 794 775 760 760 769 781 777 753 741 741 733 725 722 720 720 722 727 733 736 739 742 746
762 758 754 751 749 746 744 745 746 749 752 755 756 758 768 780 767 749 748 743 727 717 718 719 715 714 714 716 716 707 710 711 700 702 707 707 718 722 717 714 710 716 726 735 740 739 747 743 721 718 717 705 707 718 723 726 729 732 732 739 754 764 777 789 789 788 785 772 766 770 774 778 769 744 726 722 718 714 713 713 715 718 723 728 731 736 740 743
757 754 750 744 742 740 738 741 741 745 752 753 756 764 772 772 758 747 745 737 728 726 723 719 720 723 720 715 709 703 708 711 702 704 710 711 717 719 717 715 712 712 720 736 739 732 743 742 715 706 706 701 706 706 704 717 730 729 725 734 746 743 746 763 770 766 765 768 773 774 767 756 743 726 716 715 714 714 716 716 718 724 725 728 734 737 738 740
753 749 745 741 738 737 736 737 738 743 748 750 759 767 763 754 747 742 734 727 728 729 727 726 724 727 728 718 712 707 704 705 705 708 712 711 711 711 710 707 705 708 713 726 733 730 739 735 709 702 703 697 701 700 696 712 727 728 730 736 734 724 727 749 764 761 761 769 772 768 757 745 738 728 719 720 720 718 721 720 720 724 725 729 734 734 735 736
751 747 743 739 736 735 734 734 736 741 744 749 758 759 751 741 735 732 726 723 725 724 730 739 731 728 732 725 719 715 710 709 708 710 714 714 710 705 704 701 697 700 702 709 720 720 728 732 711 703 709 697 690 695 695 696 706 721 730 725 720 724 728 738 757 769 775 776 767 761 755 749 751 743 726 725 727 724 722 718 719 723 726 729 729 729 730 730
754 750 744 739 735 733 732 732 735 739 742 749 755 750 743 737 729 726 723 723 725 725 732 743 734 726 730 731 725 717 716 720 717 715 716 715 709 698 697 699 693 692 692 697 710 711 715 731 718 701 706 698 686 699 708 697 693 706 713 706 714 737 743 742 753 766 776 781 770 760 756 750 748 739 724 723 726 724 722 720 720 723 724 724 723 724 725 726
757 752 744 738 735 732 732 735 735 737 742 751 756 748 739 734 727 723 723 724 727 729 733 736 731 726 726 728 727 719 718 723 721 720 719 716 709 693 688 692 690 690 689 691 704 707 708 729 728 704 698 698 694 706 718 711 700 700 705 706 712 725 733 736 743 747 757 774 773 763 758 748 735 724 715 711 714 719 723 722 720 718 716 715 717 719 722 725
759 754 746 739 737 735 736 739 738 739 743 747 749 743 735 732 727 721 720 723 725 727 730 730 728 729 726 722 723 720 717 718 718 719 717 712 708 696 685 684 686 686 687 688 696 701 705 722 729 713 701 705 708 707 708 711 711 711 716 721 719 719 723 728 735 738 741 756 766 763 760 743 719 711 707 701 705 714 716 714 713 711 710 711 713 715 719 721
763 758 748 740 740 739 740 743 742 741 742 742 741 738 733 730 726 722 719 721 722 721 722 724 724 726 724 722 722 719 716 716 714 715 714 707 706 701 685 677 679 681 687 695 697 699 706 715 723 720 714 715 709 695 690 696 701 706 712 716 714 716 724 734 744 741 732 740 749 753 756 736 708 703 700 694 702 710 708 707 708 708 709 710 710 711 713 716
767 759 747 742 743 741 743 746 742 740 741 739 735 732 729 726 724 724 720 719 721 719 717 719 720 721 721 720 719 717 717 716 712 712 710 702 699 694 679 669 670 672 682 695 694 688 693 705 717 720 713 710 701 687 686 688 688 694 698 699 703 707 715 730 743 739 731 738 741 744 750 730 702 699 697 692 698 703 703 704 706 707 707 706 707 707 709 711
772 760 745 740 742 741 745 749 744 741 739 734 729 727 725 725 724 724 721 721 721 719 717 717 715 715 714 713 713 713 713 711 707 705 703 698 689 678 668 664 666 668 675 688 689 684 688 701 715 719 709 700 692 684 683 684 689 698 697 692 696 701 702 710 720 723 727 736 738 746 754 731 702 699 698 694 698 700 701 702 703 706 705 704 705 705 706 707
775 766 749 741 740 740 746 749 745 741 737 732 730 728 725 723 723 723 722 722 719 716 716 714 710 710 708 706 708 707 707 710 706 699 698 696 682 666 659 658 661 666 670 676 679 682 693 703 710 722 726 719 710 704 698 693 694 699 697 693 691 693 696 703 710 717 726 731 730 740 749 728 703 699 698 696 700 700 699 699 699 702 702 702 703 702 703 705
773 764 753 743 739 739 742 742 742 742 739 738 737 732 728 724 719 717 718 717 713 712 714 710 705 704 702 703 707 705 702 706 707 699 694 691 677 662 657 657 658 661 660 659 660 669 687 697 700 717 735 738 731 722 710 702 698 695 692 692 690 690 695 702 711 720 727 732 729 729 731 720 704 699 697 697 700 700 699 699 698 699 699 699 700 700 702 703
775 764 754 747 741 740 741 740 744 747 745 745 742 733 731 728 718 712 713 713 708 705 708 706 702 703 703 704 710 710 704 702 703 700 697 693 682 668 660 658 657 656 655 656 658 666 681 689 691 700 712 717 715 706 696 693 695 695 692 690 691 690 690 696 709 717 720 729 730 718 713 714 709 701 698 699 700 699 698 699 698 698 698 697 697 698 699 700
778 768 760 758 751 746 745 744 747 751 749 749 745 734 730 729 723 715 711 709 705 701 702 701 699 703 704 704 709 711 706 701 699 698 696 693 686 674 663 658 658 655 652 654 659 668 683 690 688 690 692 692 692 688 687 689 691 691 690 688 689 690 691 696 704 707 710 724 729 716 709 712 707 700 697 697 698 697 695 694 694 693 693 694 695 697 698 700
774 767 763 765 762 755 752 749 751 753 750 747 743 735 730 729 727 723 715 708 704 700 700 700 697 698 698 697 703 707 705 702 701 699 696 692 689 682 670 662 661 658 654 656 656 663 680 688 686 688 687 683 681 680 681 686 688 687 686 685 685 688 693 694 694 696 701 710 711 705 707 708 699 694 692 688 687 687 685 685 685 686 690 693 695 698 700 701
774 770 766 766 765 761 758 754 753 752 749 745 741 735 730 730 728 724 718 715 710 701 699 703 700 695 693 690 694 703 702 701 704 703 697 694 692 690 684 677 668 660 658 662 658 658 672 681 679 685 688 682 679 677 675 681 687 686 685 683 681 684 687 685 686 690 691 692 691 693 702 702 689 684 682 678 678 679 679 682 684 686 691 693 696 698 699 699
780 779 774 771 769 764 760 756 753 752 748 744 740 734 730 730 730 726 720 721 722 711 702 704 700 694 694 690 690 698 694 691 699 701 696 698 696 690 689 685 675 667 666 667 663 660 670 678 675 679 690 688 680 676 675 678 685 686 683 680 679 683 685 682 685 692 692 692 692 695 704 700 684 677 678 678 679 682 683 685 686 686 689 691 694 697 697 697
783 782 779 778 774 764 758 755 753 753 750 743 739 736 734 732 731 730 723 715 715 713 705 703 700 694 694 693 691 694 690 686 692 692 690 695 694 686 685 681 676 676 675 670 666 664 670 678 676 679 693 691 678 677 679 678 683 688 684 679 679 684 687 683 681 685 688 691 697 704 708 699 682 677 681 683 683 685 685 684 684 686 687 690 693 694 696 697
783 781 778 780 775 764 758 757 754 753 747 741 740 741 740 736 731 731 728 713 704 705 702 700 699 696 695 696 693 690 689 687 685 682 681 684 682 678 677 674 673 678 678 674 671 668 669 676 677 682 694 690 677 676 679 682 695 699 685 674 674 677 678 678 677 678 678 680 689 697 693 683 677 677 682 685 686 686 687 686 686 687 688 690 692 693 694 696